Wind_Speed
14 14 13 13 13 13 13 12 12 11 11 10 10 9 9 9 8 8 7 7 8 8 8 8 8 7 7 7 7 6 6 5 5 4 4 4 4 4 4 4 4 4
15 15 15 14 14 14 13 13 12 12 12 12 11 11 11 11 10 9 9 9 9 9 9 9 8 8 8 8 8 7 7 6 6 5 5 5 5 4 4 4 5 5
16 16 16 15 15 14 14 13 13 13 13 12 13 12 12 12 11 10 10 10 10 9 9 9 9 8 8 8 8 8 7 7 6 6 6 6 5 5 5 5 5 5
17 17 16 16 16 15 15 14 14 14 13 13 13 13 13 12 12 12 11 11 11 10 10 10 9 9 9 9 8 8 7 7 7 6 6 7 6 6 6 6 6 6
18 18 18 17 16 16 16 15 15 15 14 14 14 14 14 13 13 13 13 12 12 12 11 11 10 10 9 9 8 8 8 7 7 7 7 7 7 7 7 7 7 7
20 19 19 18 18 17 17 16 16 16 15 15 15 15 15 15 14 14 14 14 13 13 12 12 11 11 10 10 10 9 9 9 8 8 8 8 9 9 8 8 9 9
21 20 20 19 19 18 18 17 17 17 17 17 17 17 17 16 16 16 16 15 15 14 14 13 13 13 12 12 12 11 11 11 11 10 10 10 10 10 10 10 10 10
23 22 21 21 20 19 19 18 18 18 18 17 17 18 18 17 17 17 17 16 16 16 15 15 14 14 14 14 14 14 14 14 14 13 13 12 12 12 13 12 12 11
25 24 23 23 22 21 20 20 19 19 18 18 18 18 18 18 18 18 18 17 17 17 16 16 16 15 15 15 16 16 16 16 16 15 15 14 13 14 14 13 12 11
26 25 25 25 24 24 22 22 21 20 19 19 19 19 18 18 18 18 18 18 18 18 18 17 17 17 16 17 17 17 17 17 17 16 16 15 14 14 14 14 13 12
27 27 27 27 26 26 25 24 23 22 21 20 20 20 19 19 19 19 19 19 18 18 18 19 19 18 18 18 18 18 17 17 17 17 17 17 16 15 15 15 14 14
29 28 28 27 27 27 26 26 25 24 23 22 21 21 20 20 20 20 19 19 19 19 19 19 19 19 19 19 19 19 18 18 18 18 17 17 17 16 16 16 16 15
28 29 29 28 28 28 27 27 27 26 25 24 23 21 21 21 21 20 19 19 20 20 19 19 20 20 20 20 20 20 20 19 19 18 18 17 17 17 17 17 17 16
28 29 29 30 29 28 28 28 27 27 26 25 24 23 21 21 21 21 20 20 21 21 20 20 20 20 21 21 21 21 21 21 20 19 19 18 18 18 18 18 17 17
29 29 28 29 31 30 29 29 28 27 26 25 25 24 23 22 21 21 21 21 22 22 21 23 22 22 22 22 22 23 22 22 21 21 20 20 19 19 18 18 18 18
30 31 30 30 32 31 30 30 29 28 28 27 26 25 24 23 22 22 22 22 23 23 24 25 24 23 23 23 23 24 24 23 23 23 22 21 21 22 21 20 20 20
33 33 32 32 33 32 31 31 30 30 30 29 27 27 26 26 25 25 24 23 24 25 25 26 27 26 25 25 25 26 25 24 24 24 24 23 24 24 24 23 22 22
35 34 33 34 34 33 33 32 31 31 32 31 29 29 28 27 28 29 28 26 26 27 28 28 29 29 27 26 27 27 27 26 26 27 27 26 27 27 27 26 24 24
36 34 35 36 36 35 35 34 33 33 33 33 31 30 29 29 30 31 30 29 29 29 30 30 31 32 30 28 29 30 30 29 29 30 29 29 30 31 29 28 28 28
36 35 35 37 37 37 37 36 36 36 36 35 33 32 31 31 32 32 32 32 32 31 31 32 31 32 32 33 33 33 34 33 31 31 31 31 32 32 31 31 30 30
40 40 38 38 39 39 39 38 38 39 40 38 36 35 34 33 33 34 35 35 35 34 35 36 36 35 35 37 37 37 37 36 35 33 33 33 32 31 32 32 32 32
44 44 41 40 40 40 40 40 40 41 40 39 39 37 36 35 36 36 37 38 38 38 39 39 40 40 39 38 38 38 39 39 38 37 37 36 33 32 34 34 33 34
37 40 41 42 43 43 41 39 41 43 41 40 41 40 39 39 39 39 39 41 42 43 43 43 41 42 42 40 40 41 42 42 41 40 40 39 36 35 37 37 36 36
20 26 32 37 43 47 47 43 41 43 43 42 42 42 41 40 41 42 43 44 45 47 48 47 45 44 45 44 44 45 46 45 44 43 44 43 40 39 39 39 38 39
14 16 19 22 28 37 44 45 44 45 46 44 42 42 44 46 46 46 46 47 48 50 51 49 48 47 48 49 48 48 48 47 45 45 45 45 42 40 40 42 42 41
20 20 19 18 18 21 28 35 37 38 40 42 40 34 34 40 46 49 51 52 51 51 53 52 49 48 49 52 54 52 50 48 46 46 45 44 43 41 40 42 43 42
Wind_Direction
216 213 211 209 206 205 206 205 204 204 203 204 203 202 205 208 210 211 212 216 218 220 221 218 218 219 217 217 217 218 215 208 207 213 225 236 234 228 219 211 206 198
221 219 215 213 212 210 211 210 209 209 208 207 208 206 208 209 209 211 213 217 220 223 227 227 226 226 225 226 223 219 217 215 212 214 221 231 234 229 221 209 201 197
224 224 221 217 217 215 215 214 213 214 214 212 213 213 215 214 212 212 214 216 219 221 226 230 232 231 229 231 231 226 222 216 212 213 216 220 221 218 213 206 202 206
226 226 226 223 222 221 219 219 217 218 218 217 218 218 219 220 218 217 217 217 217 217 220 225 230 233 233 234 235 233 230 223 215 213 212 214 214 212 209 208 213 224
227 226 227 228 227 226 225 224 223 224 223 223 224 223 223 224 223 223 222 221 219 217 217 219 223 227 231 234 238 239 238 235 228 221 218 219 220 219 219 221 229 239
228 227 229 230 231 231 231 231 230 230 230 229 229 229 228 227 226 228 228 227 225 222 219 219 221 224 228 232 237 241 243 244 241 234 230 231 232 233 236 240 245 252
231 230 230 231 233 235 236 237 237 236 236 235 234 234 234 232 231 231 232 231 230 229 226 224 224 225 228 232 235 238 242 245 245 243 240 244 247 247 250 253 255 259
232 232 232 231 231 234 236 239 240 241 241 240 239 238 238 237 236 235 234 234 234 233 231 230 230 231 232 234 236 238 240 243 246 246 246 248 252 255 257 259 259 260
232 232 235 235 234 234 235 238 240 242 243 245 244 243 242 241 241 240 239 237 236 236 235 233 233 235 237 238 240 240 240 243 245 246 247 247 249 255 258 260 260 259
234 233 235 237 238 239 239 239 240 241 243 245 247 247 246 247 246 245 245 243 240 238 238 237 236 237 238 240 241 242 242 243 244 245 247 248 248 250 253 255 257 258
237 236 237 238 239 241 243 244 244 244 243 244 247 249 249 250 250 250 249 248 247 245 243 241 239 238 238 238 240 242 243 244 245 246 247 248 248 248 250 251 252 255
239 239 241 241 241 241 243 246 248 248 246 245 246 249 250 251 252 252 253 253 252 251 249 248 245 242 241 240 240 241 242 244 246 248 249 251 252 252 253 253 254 255
241 240 240 241 243 243 242 245 248 249 249 247 247 248 250 252 253 252 253 254 254 252 251 251 250 248 245 244 243 243 243 244 245 248 251 253 254 255 256 257 258 259
244 243 242 241 243 244 244 245 247 249 251 250 249 248 247 248 250 251 251 252 254 253 253 253 252 250 248 245 245 245 245 246 246 247 249 251 253 255 256 258 259 261
246 245 244 244 244 243 245 246 247 248 249 251 250 249 246 245 245 248 250 250 251 253 253 252 251 250 249 246 245 245 245 245 245 245 246 249 252 253 253 254 255 256
243 242 241 244 245 244 244 245 247 247 247 247 249 247 246 244 243 247 251 250 250 251 251 251 251 250 249 249 248 248 248 248 248 247 246 247 249 250 250 250 250 252
237 238 239 243 247 247 245 243 244 244 244 245 246 245 244 242 243 248 252 253 251 252 252 252 252 251 248 249 251 252 253 253 253 253 250 249 249 249 249 249 249 251
237 238 239 242 245 246 246 245 244 243 243 243 243 244 245 244 245 248 251 253 254 254 253 251 252 252 251 251 253 255 255 255 256 256 255 255 254 252 250 250 250 251
239 240 240 241 242 244 245 248 247 244 244 245 245 245 245 246 248 250 251 252 252 254 254 253 252 253 253 251 252 254 254 254 253 254 255 255 256 255 253 252 252 252
238 241 244 243 243 244 245 247 248 247 246 247 247 247 247 248 250 252 253 252 251 252 252 251 251 253 255 253 251 251 252 252 252 253 253 252 254 256 256 254 254 255
239 244 249 248 245 247 248 248 248 248 247 247 247 247 247 249 250 252 253 254 255 255 252 250 250 253 258 258 254 252 252 253 252 253 251 251 252 255 257 256 255 256
245 248 250 247 244 247 251 251 248 247 247 249 249 247 246 247 248 250 253 255 257 257 256 254 253 255 258 257 256 256 257 255 254 254 253 252 251 252 256 257 254 253
248 249 249 246 244 245 249 251 248 246 247 250 250 249 248 248 249 250 251 254 256 256 257 256 256 256 256 255 256 257 257 256 256 255 255 254 252 251 254 256 254 252
245 246 245 244 243 244 246 249 248 246 247 249 250 251 251 251 252 252 253 254 256 257 257 257 257 257 257 256 257 257 254 253 255 256 256 255 255 255 255 254 253 253
262 258 251 247 245 243 244 247 248 249 249 249 251 254 256 255 254 254 255 256 256 256 257 257 258 258 258 258 258 258 254 251 251 253 256 257 256 257 258 257 255 254
277 277 277 275 267 253 244 242 246 253 255 252 251 255 261 260 256 254 254 255 256 256 257 259 259 257 255 256 257 257 256 254 251 251 253 256 255 255 257 258 258 257
Height
5924 5924 5925 5926 5926 5927 5928 5928 5929 5929 5930 5931 5932 5932 5933 5934 5935 5936 5937 5937 5938 5938 5939 5939 5939 5939 5940 5940 5941 5941 5942 5942 5942 5942 5943 5943 5943 5944 5944 5945 5944 5944
5923 5924 5925 5925 5926 5927 5927 5928 5929 5929 5930 5931 5931 5932 5932 5933 5934 5935 5936 5937 5937 5938 5938 5939 5939 5939 5939 5940 5940 5940 5941 5941 5942 5942 5942 5943 5943 5944 5944 5944 5944 5944
5923 5924 5924 5925 5926 5926 5927 5928 5929 5929 5930 5930 5931 5931 5932 5932 5933 5934 5935 5936 5936 5937 5938 5938 5938 5939 5939 5939 5939 5940 5940 5941 5941 5941 5942 5942 5943 5943 5944 5944 5944 5944
5922 5923 5924 5925 5926 5926 5927 5928 5928 5929 5930 5930 5930 5931 5932 5932 5933 5933 5934 5935 5935 5936 5937 5937 5938 5938 5938 5938 5939 5939 5939 5940 5940 5941 5941 5942 5942 5943 5943 5943 5944 5943
5921 5922 5923 5924 5925 5926 5926 5927 5928 5928 5929 5930 5930 5931 5931 5932 5933 5933 5934 5934 5935 5935 5936 5936 5937 5937 5938 5938 5938 5938 5939 5939 5940 5940 5941 5941 5942 5942 5942 5943 5943 5943
5919 5920 5922 5923 5924 5925 5926 5926 5927 5928 5928 5929 5929 5930 5931 5931 5932 5932 5933 5933 5934 5934 5935 5935 5936 5936 5937 5937 5937 5937 5938 5939 5939 5940 5940 5941 5941 5941 5942 5942 5942 5942
5918 5919 5920 5922 5922 5923 5924 5925 5926 5927 5927 5928 5928 5929 5930 5930 5931 5931 5932 5933 5933 5934 5934 5934 5935 5935 5935 5936 5936 5936 5937 5937 5938 5939 5939 5939 5940 5940 5941 5941 5941 5941
5916 5917 5918 5919 5921 5922 5922 5923 5924 5925 5926 5926 5927 5928 5928 5929 5929 5930 5931 5931 5932 5933 5933 5934 5934 5934 5934 5935 5935 5935 5936 5936 5937 5937 5938 5938 5938 5939 5940 5940 5940 5940
5914 5915 5916 5917 5918 5919 5920 5921 5922 5923 5924 5925 5926 5926 5927 5927 5928 5929 5929 5930 5930 5931 5932 5932 5933 5933 5934 5934 5934 5934 5935 5935 5935 5936 5936 5937 5937 5937 5938 5938 5938 5939
5912 5914 5915 5916 5916 5917 5918 5919 5920 5921 5922 5923 5924 5924 5925 5926 5927 5927 5928 5928 5929 5930 5930 5931 5931 5932 5932 5933 5933 5933 5934 5934 5934 5935 5935 5935 5935 5936 5937 5937 5937 5937
5910 5911 5912 5913 5913 5915 5916 5917 5918 5919 5920 5921 5922 5923 5924 5924 5925 5926 5927 5927 5928 5928 5929 5929 5930 5930 5931 5931 5932 5932 5932 5933 5933 5934 5934 5934 5934 5935 5935 5936 5936 5936
5907 5908 5909 5910 5911 5912 5914 5915 5916 5917 5918 5919 5920 5921 5922 5922 5923 5924 5925 5926 5927 5927 5928 5928 5929 5929 5930 5930 5930 5931 5931 5931 5932 5932 5933 5933 5934 5934 5935 5935 5935 5935
5906 5906 5907 5908 5908 5909 5911 5912 5913 5914 5916 5917 5918 5918 5919 5920 5921 5922 5923 5924 5925 5925 5926 5927 5928 5928 5928 5929 5929 5929 5930 5930 5931 5931 5932 5932 5933 5933 5933 5934 5934 5934
5903 5904 5905 5905 5906 5907 5908 5909 5910 5912 5913 5914 5915 5916 5916 5917 5918 5919 5921 5922 5922 5923 5924 5925 5926 5927 5927 5927 5927 5928 5928 5929 5929 5930 5930 5930 5931 5931 5932 5933 5933 5933
5900 5902 5903 5904 5904 5905 5905 5906 5908 5909 5910 5911 5912 5913 5913 5914 5915 5916 5918 5919 5920 5921 5923 5923 5924 5925 5925 5925 5925 5925 5926 5927 5927 5928 5928 5928 5929 5929 5929 5930 5931 5931
5896 5898 5901 5902 5902 5902 5903 5904 5905 5906 5906 5907 5908 5909 5910 5911 5912 5913 5914 5916 5917 5919 5920 5921 5921 5922 5923 5923 5923 5923 5924 5925 5925 5925 5925 5926 5926 5926 5927 5927 5928 5929
5890 5893 5896 5898 5899 5899 5900 5901 5902 5902 5902 5903 5904 5905 5906 5907 5907 5909 5911 5912 5914 5915 5917 5918 5918 5918 5919 5920 5920 5921 5922 5922 5923 5923 5923 5923 5924 5924 5924 5925 5926 5926
5887 5889 5892 5894 5895 5896 5897 5898 5899 5899 5899 5900 5901 5901 5902 5903 5904 5905 5907 5908 5910 5911 5913 5914 5914 5914 5916 5917 5917 5918 5919 5919 5920 5920 5920 5921 5921 5921 5922 5922 5923 5922
5884 5886 5887 5888 5889 5891 5893 5895 5896 5896 5896 5897 5898 5898 5900 5901 5901 5902 5903 5904 5905 5906 5907 5909 5910 5911 5912 5913 5914 5914 5914 5915 5916 5916 5917 5919 5918 5918 5919 5919 5919 5919
5880 5881 5882 5884 5885 5887 5889 5891 5892 5893 5893 5894 5895 5896 5897 5899 5899 5899 5900 5900 5900 5901 5901 5903 5905 5907 5907 5908 5910 5910 5910 5910 5911 5912 5913 5914 5914 5915 5916 5916 5916 5916
5875 5876 5877 5879 5881 5882 5883 5885 5887 5888 5889 5889 5891 5892 5894 5895 5896 5896 5896 5896 5897 5897 5897 5897 5899 5901 5902 5903 5905 5906 5906 5906 5907 5908 5908 5908 5909 5911 5911 5911 5913 5913
5870 5871 5873 5875 5877 5878 5879 5880 5882 5883 5884 5885 5886 5888 5890 5891 5891 5892 5892 5893 5893 5893 5893 5894 5895 5896 5897 5898 5899 5900 5901 5902 5903 5904 5904 5904 5906 5907 5906 5907 5908 5909
5865 5867 5869 5871 5873 5874 5874 5875 5877 5878 5880 5881 5881 5883 5884 5886 5886 5887 5888 5888 5888 5888 5888 5889 5891 5892 5892 5893 5894 5894 5895 5896 5898 5899 5899 5900 5901 5902 5902 5902 5903 5903
5862 5863 5864 5865 5867 5868 5869 5871 5872 5873 5875 5876 5877 5878 5880 5881 5881 5882 5883 5883 5884 5883 5882 5883 5885 5887 5887 5887 5889 5889 5889 5889 5891 5894 5894 5895 5896 5898 5898 5898 5898 5898
5858 5859 5860 5860 5862 5863 5865 5867 5868 5868 5869 5872 5874 5875 5875 5876 5876 5877 5876 5877 5877 5876 5876 5877 5879 5881 5882 5882 5883 5884 5884 5884 5885 5887 5888 5890 5892 5893 5893 5893 5892 5892
5855 5856 5856 5857 5858 5859 5860 5862 5864 5864 5864 5866 5870 5872 5871 5870 5869 5869 5869 5869 5870 5870 5871 5872 5873 5874 5875 5875 5875 5877 5879 5879 5879 5881 5883 5885 5886 5886 5886 5887 5888 5887